|
NORAD ID: 20834 Int'l Code: 1989-080L
Perigee: 457.8 km
Apogee: 1,085.7 km
Inclination: 82.5 °
Period: 100.1 minutes
Semi major axis: 7142 km
Launch date: September 28, 1989
Source: Commonwealth of Independent States (former USSR) (CIS)
Note: This is SATELLITE DEBRIS
Two Line Element Set (TLE):
1 20834U 89080L 13144.43000962 .00020064 00000-0 20851-2 0 6053
2 20834 082.4826 293.9310 0439507 033.5380 022.9629 14.38145500895234
Source:
NASA's NSSDC Master Catalog entry for SL-14 DEB
|